Regional Weather Roundup
Issued by NWS Charleston, SC

Current Version | Previous Version | Graphics & Text | Print | Product List | Glossary On
Versions: 1 2 3 4 5 6 7 8 9 10 11 12 13 14 15 16 17 18 19 20 21 22 23 24 25 26 27 28 29 30 31 32 33 34 35 36 37 38 39 40 41 42 43 44 45 46 47 48 49 50
000 ASUS42 KCHS 060227 RWRCHS REGIONAL WEATHER ROUNDUP NATIONAL WEATHER SERVICE CHARLESTON SC 1000 PM EDT SUN JUL 05 2015 NOTE: "FAIR" INDICATES FEW OR NO CLOUDS BELOW 12,000 FEET WITH NO SIGNIFICANT WEATHER AND/OR OBSTRUCTIONS TO VISIBILITY. NOT ALL STATIONS ARE QUALITY CONTROLLED BY THE NATIONAL WEATHER SERVICE. USE DATA WITH CAUTION...ESPECIALLY DEWPOINT OBSERVATIONS. SCZ027-030-031-034>040-042>050-060300- ...SOUTHEAST SOUTH CAROLINA... CITY SKY/WX TMP DP RH WIND PRES REMARKS N CHARLESTON CLOUDY 78 72 81 SW7 30.10F WATERFRONT PAR N/A 81 74 79 SW8 30.07F MOUNT PLEASANT FAIR 81 72 74 S9 30.10F JOHNS ISLAND FAIR 77 72 83 CALM 30.10F PINOPOLIS NOT AVBL MONCKS CORNER FAIR 75 73 94 CALM 30.10S SUMMERVILLE FAIR 73 73 100 CALM 30.10F BEAUFORT MCAS CLOUDY 73 72 96 CALM 30.10F BEAUFORT ARPT FAIR 73 73 100 CALM 30.10S HILTON HEAD IS CLOUDY 73 72 94 CALM 30.11S WALTERBORO CLOUDY 72 70 94 S3 30.11S ALLENDALE FAIR 72 72 100 CALM 30.09F ...SOUTHERN MIDLANDS AND PEE DEE... CITY SKY/WX TMP DP RH WIND PRES REMARKS GEORGETOWN NOT AVBL KINGSTREE NOT AVBL ORANGEBURG CLOUDY 72 69 90 S5 30.10F BARNWELL FAIR 73 72 94 CALM 30.11R AIKEN NOT AVBL MANNING RAIN 75 70 83 CALM 30.10S COLUMBIA PTCLDY 75 69 81 SE6 30.08S SUMTER CLOUDY 73 69 86 SW6 30.08S FLORENCE MOCLDY 78 72 81 SW6 30.11R MYRTLE BEACH PTCLDY 82 72 69 SW9G16 30.13F N MYRTLE BEACH MOCLDY 82 76 81 SW12 30.13R $$ GAZ063-065-086>088-099>101-113>116-118-119-134>141-150-060300- ...SOUTHEAST GEORGIA... CITY SKY/WX TMP DP RH WIND PRES REMARKS SAVANNAH ARPT CLOUDY 72 69 90 CALM 30.10F HUNTER AAF CLOUDY 71 71 100 CALM 30.08F FORT STEWART MOCLDY 72 69 88 SW5 30.08F STATESBORO NOT AVBL SYLVANIA MOCLDY 74 74 99 CALM 30.11R CLAXTON FAIR 72 72 100 CALM 30.10S ...CSRA...CENTRAL AND FAR SOUTHEAST GEORGIA... CITY SKY/WX TMP DP RH WIND PRES REMARKS THOMSON CLEAR 78 73 84 S3 30.16R AUGUSTA-BUSH CLEAR 75 72 90 S5 30.09R AUGUSTA-DANIEL CLEAR 77 70 79 S7 30.11R SWAINSBORO FAIR N/A N/A N/A S3 30.13R VIDALIA CLEAR 72 72 100 SW5 30.13R EASTMAN FAIR 75 74 95 CALM 30.15R HAZLEHURST CLOUDY 75 75 100 S6 30.12R ALMA CLOUDY 73 71 93 S9 30.12F WAYCROSS CLOUDY 74 74 98 SW5 30.13S JESUP FAIR 73 72 94 W3 30.12S BAXLEY CLOUDY 73 72 94 S7 30.13R BRUNSWICK CLOUDY 72 72 100 CALM 30.12S SAINT SIMONS CLOUDY 74 71 91 SW6 30.10F $$ SCZ027-028-034-036>038-045-046-048>050-GAZ119-141-060300- ...LAKE AND SUPPLEMENTAL COASTAL OBSERVATIONS... STATION/POSITION TIME TEMP WIND PRES WAVE SWELL AIR SEA DIR/SP/G HT/PER HT/PER/DIR (UTC) (F) (DEG/KT/KT) (MB) (FT/S) (FT/S/D) UPR LAKE MARION NOT AVBL WINYAH BAY 0145 80 200/ 8 1019.0S LAKE MURRAY 0100 76 180/ 8/ 10 1017.9F ACE BASIN NERRS NOT AVBL FORT PULASKI 0200 74 84 250/ 6/ 8 1019.7R SAPELO ISLAND 0200 74 200/ 8 1019.0S $$ ANZ835-935-AMZ111-154-330-350-352-354-370-450-454-472-060300- ...C-MAN AND BUOY OBSERVATIONS... STATION/POSITION TIME TEMP WIND PRES WAVE SWELL AIR SEA DIR/SP/G HT/PER HT/PER/DIR (UTC) (F) (DEG/KT/KT) (MB) (FT/S) (FT/S/D) BUOY 41004 0150 82 83 210/ 16/ 17 1019.3F 4/ 9 2/ 9 BUOY 41008 0150 76 79 190/ 10/ 12 1019.2F 2/ 9 2/120/ 9 FOLLY BEACH CMAN 0200 78 230/ 7/ 9 1019.6F CAPERS NEARSHORE 0108 82 220/ 16/ 21 1019.9F FRIPP NEARSHORE 0100 79 240/ 8/ 10 1019.2F STATION/POSITION TIME TEMP WIND PRES WAVE SWELL AIR SEA DIR/SP/G HT/PER HT/PER/DIR (UTC) (F) (DEG/KT/KT) (MB) (FT/S) (FT/S/D) 5E ST. MARYS GA 0121 78 N/A 2/ 8 FRYING PAN BUOY 0150 81 79 210/ 10/ 12 1021.1R 3/ 4 2/110/ 8 BUOY 41025 0150 82 81 220/ 16/ 17 1020.4R 3/ 9 2/140/ 9 CAPE LOOKOUT NC 0200 80 210/ 11/ 14 1020.8R BUOY 41002 0150 81 80 180/ 8/ 10 1022.8R 3/ 8 3/140/ 8 BUOY 41010 0120 82 84 70/ 4/ 6 1021.5F ST AUGUSTINE FL 0200 72 71 190/ 8/ 9 1020.9F $$

USA.gov is the U.S. government's official web portal to all federal, state and local government web resources and services.